COSMOS 1989 (ETALON 1)

Last updated on Mon Nov 03 2025 00:03:54 GMT+0000 (Coordinated Universal Time)

1 19751U 89001C 25305.71647650 .00000037 00000+0 00000+0 0 9990 2 19751 64.8139 79.9826 0023439 216.9567 156.2945 2.13155964286525
UTC large
Height (km)
Speed (km/s)
/
Latitude / Longitude
Inclination (degrees)
Orbital Period (minutes)
Azimuth
Elevation
Range (km)
Doppler Factor

Next 0 passes for location: London (51.5072 / 0.1276)

Sorry there are no passes over London.